Zurück zum Katalog

COSMOS 2499 DEB

AktivPO
NORAD 49938·DEBRIS·🇷🇺 Russia

Gestartet May 23, 2014 von Plesetsk Cosmodrome

Loading…

Nächste Überflüge (nächste 24 Stunden)

TLE

AktuellSource: Space-Track

Epoche: Sep 12, 2026, 02:11 UTC

1 49938U 14028V   26255.09119009  .00002690  00000-0  65651-2 0  9999
2 49938  82.5630 175.5933 0306622   5.2572 355.1640 13.05493588230546

Verfolge COSMOS 2499 DEB in Echtzeit mit AllMySat

Download on the App Store